| time (UTC) | temp F | wind direction | speed MPH | gust MPH | rain 1hr in | rain 24hr in | rain mn in | humidity % | barometer mb |
| 20260507074501 | 37 | 271 | 0.0 | 1.0 | 0.00 | 0.50 | 0.00 | 93 | 1010.2 |
| 20260507073108 | 38 | 271 | 1.0 | 2.0 | 0.00 | 0.50 | 0.00 | 93 | 1010.2 |
| 20260507071557 | 38 | 271 | 0.0 | 1.0 | 0.00 | 0.50 | 0.00 | 93 | 1010.4 |
| 20260507070104 | 39 | 271 | 0.0 | 0.0 | 0.00 | 0.50 | 0.00 | 92 | 1010.5 |
| 20260507064550 | 40 | 271 | 0.0 | 0.0 | 0.00 | 0.60 | 0.00 | 92 | 1010.7 |
| 20260507063053 | 40 | 271 | 0.0 | 0.0 | 0.00 | 0.60 | 0.00 | 92 | 1010.6 |
| 20260507061545 | 41 | 271 | 0.0 | 0.0 | 0.00 | 0.60 | 0.00 | 91 | 1010.6 |
| 20260507060014 | 41 | 271 | 0.0 | 2.0 | 0.00 | 0.60 | 0.00 | 91 | 1010.5 |
| 20260507054512 | 41 | 271 | 0.0 | 2.0 | 0.00 | 0.71 | 0.00 | 91 | 1010.6 |
| 20260507053009 | 42 | 271 | 1.0 | 4.0 | 0.00 | 0.71 | 0.00 | 91 | 1010.8 |
| 20260507051506 | 42 | 248 | 3.0 | 4.0 | 0.00 | 0.71 | 0.00 | 93 | 1010.9 |
| 20260507050013 | 42 | 266 | 0.0 | 4.0 | 0.00 | 0.71 | 0.00 | 93 | 1011.0 |
| 20260507044504 | 42 | 285 | 2.0 | 5.0 | 0.00 | 0.79 | 0.00 | 93 | 1011.2 |
| 20260507043100 | 42 | 247 | 1.0 | 3.0 | 0.00 | 0.79 | 0.00 | 93 | 1011.1 |
| 20260507041601 | 42 | 247 | 1.0 | 2.0 | 0.00 | 0.79 | 0.00 | 93 | 1010.9 |
| 20260507040103 | 42 | 248 | 2.0 | 4.0 | 0.00 | 0.79 | 0.00 | 93 | 1010.8 |
| 20260507034559 | 42 | 265 | 2.0 | 4.0 | 0.00 | 0.87 | 0.79 | 93 | 1010.7 |
| 20260507033054 | 42 | 263 | 3.0 | 6.0 | 0.00 | 0.87 | 0.79 | 94 | 1010.7 |
| 20260507031555 | 42 | 261 | 1.0 | 4.0 | 0.00 | 0.87 | 0.79 | 94 | 1010.8 |
| 20260507030052 | 42 | 278 | 3.0 | 7.0 | 0.00 | 0.87 | 0.79 | 94 | 1010.7 |
| 20260507024552 | 42 | 257 | 2.0 | 6.0 | 0.00 | 0.88 | 0.79 | 94 | 1010.7 |
| 20260507023049 | 43 | 285 | 3.0 | 5.0 | 0.00 | 0.88 | 0.79 | 94 | 1010.5 |
| 20260507021557 | 42 | 250 | 2.0 | 5.0 | 0.00 | 0.88 | 0.79 | 94 | 1010.7 |
| 20260507020047 | 43 | 264 | 2.0 | 4.0 | 0.00 | 0.88 | 0.79 | 94 | 1010.8 |
| 20260507014546 | 42 | 257 | 2.0 | 4.0 | 0.00 | 0.91 | 0.79 | 94 | 1010.7 |
| 20260507013043 | 42 | 251 | 2.0 | 4.0 | 0.00 | 0.91 | 0.79 | 94 | 1010.4 |
| 20260507011545 | 42 | 249 | 2.0 | 7.0 | 0.00 | 0.91 | 0.79 | 94 | 1010.5 |
| 20260507010044 | 42 | 240 | 4.0 | 8.0 | 0.00 | 0.91 | 0.79 | 94 | 1010.5 |
| 20260507004539 | 42 | 279 | 2.0 | 7.0 | 0.00 | 0.97 | 0.79 | 94 | 1010.2 |
| 20260507003035 | 42 | 280 | 6.0 | 10.0 | 0.00 | 0.97 | 0.79 | 94 | 1010.3 |
| 20260507001534 | 42 | 298 | 4.0 | 10.0 | 0.00 | 0.97 | 0.79 | 93 | 1010.0 |
| 20260507000034 | 42 | 314 | 5.0 | 9.0 | 0.02 | 0.97 | 0.79 | 93 | 1009.9 |
| 20260506234527 | 42 | 321 | 5.0 | 9.0 | 0.04 | 1.03 | 0.79 | 93 | 1009.7 |
| 20260506233025 | 43 | 309 | 3.0 | 10.0 | 0.08 | 1.03 | 0.79 | 93 | 1009.3 |
| 20260506231526 | 43 | 341 | 4.0 | 11.0 | 0.10 | 1.03 | 0.79 | 92 | 1009.4 |
| 20260506230019 | 44 | 355 | 7.0 | 14.0 | 0.09 | 1.01 | 0.77 | 91 | 1009.1 |
| 20260506224516 | 46 | 327 | 7.0 | 21.0 | 0.09 | 1.03 | 0.75 | 89 | 1008.6 |
| 20260506223017 | 48 | 134 | 0.0 | 3.0 | 0.05 | 0.99 | 0.71 | 89 | 1008.1 |
| 20260506221513 | 48 | 134 | 1.0 | 4.0 | 0.03 | 0.97 | 0.69 | 88 | 1007.9 |
| 20260506220019 | 48 | 134 | 1.0 | 3.0 | 0.02 | 0.96 | 0.68 | 86 | 1007.8 |
| 20260506214510 | 49 | 134 | 1.0 | 4.0 | 0.00 | 0.98 | 0.66 | 84 | 1007.7 |
| 20260506213008 | 49 | 134 | 1.0 | 4.0 | 0.00 | 0.98 | 0.66 | 83 | 1007.4 |
| 20260506211508 | 49 | 134 | 3.0 | 5.0 | 0.00 | 0.98 | 0.66 | 83 | 1007.4 |
| 20260506210006 | 50 | 201 | 1.0 | 5.0 | 0.00 | 0.98 | 0.66 | 82 | 1007.5 |
| 20260506204505 | 49 | 204 | 0.0 | 2.0 | 0.00 | 0.98 | 0.66 | 82 | 1007.6 |
| 20260506203013 | 49 | 204 | 1.0 | 3.0 | 0.00 | 0.98 | 0.66 | 83 | 1007.6 |
| 20260506201507 | 49 | 204 | 2.0 | 3.0 | 0.00 | 0.98 | 0.66 | 81 | 1007.7 |
| 20260506200002 | 50 | 204 | 1.0 | 3.0 | 0.00 | 0.98 | 0.66 | 82 | 1007.6 |
| 20260506194619 | 49 | 200 | 2.0 | 6.0 | 0.00 | 0.98 | 0.66 | 84 | 1007.7 |
| 20260506193055 | 49 | 151 | 2.0 | 3.0 | 0.00 | 0.98 | 0.66 | 86 | 1007.5 |
| 20260506191552 | 48 | 156 | 2.0 | 5.0 | 0.00 | 0.98 | 0.66 | 86 | 1007.6 |
| 20260506190052 | 48 | 105 | 0.0 | 4.0 | 0.00 | 0.98 | 0.66 | 87 | 1007.7 |
| 20260506184547 | 47 | 36 | 1.0 | 3.0 | 0.00 | 0.98 | 0.66 | 89 | 1007.9 |
| 20260506183100 | 47 | 79 | 2.0 | 5.0 | 0.00 | 0.98 | 0.66 | 89 | 1007.9 |
| 20260506181553 | 46 | 5 | 1.0 | 4.0 | 0.00 | 0.98 | 0.66 | 89 | 1007.8 |
| 20260506180046 | 46 | 15 | 1.0 | 4.0 | 0.00 | 0.98 | 0.66 | 89 | 1008.0 |
| 20260506174542 | 47 | 79 | 2.0 | 4.0 | 0.00 | 0.98 | 0.66 | 90 | 1008.0 |
| 20260506173049 | 46 | 21 | 2.0 | 5.0 | 0.00 | 0.98 | 0.66 | 90 | 1007.9 |
| 20260506171544 | 47 | 342 | 2.0 | 4.0 | 0.00 | 0.98 | 0.66 | 92 | 1007.6 |
| 20260506170044 | 46 | 106 | 1.0 | 6.0 | 0.00 | 0.98 | 0.66 | 93 | 1007.3 |
| 20260506164545 | 46 | 10 | 1.0 | 4.0 | 0.00 | 0.98 | 0.66 | 94 | 1007.5 |
| 20260506163035 | 45 | 97 | 3.0 | 5.0 | 0.00 | 0.98 | 0.66 | 94 | 1007.3 |
| 20260506161539 | 45 | 10 | 2.0 | 5.0 | 0.00 | 0.98 | 0.66 | 95 | 1007.5 |
| 20260506160042 | 45 | 97 | 2.0 | 7.0 | 0.01 | 0.98 | 0.66 | 95 | 1007.3 |
| 20260506154531 | 44 | 98 | 3.0 | 8.0 | 0.01 | 0.98 | 0.66 | 95 | 1007.2 |
| 20260506153027 | 44 | 96 | 2.0 | 5.0 | 0.01 | 0.98 | 0.66 | 95 | 1007.5 |
| 20260506151533 | 44 | 90 | 1.0 | 5.0 | 0.01 | 0.98 | 0.66 | 95 | 1007.2 |
| 20260506150030 | 44 | 101 | 1.0 | 7.0 | 0.00 | 0.97 | 0.65 | 95 | 1007.1 |
| 20260506144521 | 44 | 38 | 2.0 | 4.0 | 0.00 | 0.97 | 0.65 | 95 | 1007.1 |
| 20260506143036 | 44 | 65 | 2.0 | 6.0 | 0.00 | 0.97 | 0.65 | 95 | 1007.0 |
| 20260506141518 | 44 | 26 | 1.0 | 4.0 | 0.01 | 0.97 | 0.65 | 95 | 1006.8 |
| 20260506140017 | 44 | 72 | 0.0 | 4.0 | 0.02 | 0.97 | 0.65 | 95 | 1006.8 |
| 20260506134545 | 44 | 74 | 2.0 | 5.0 | 0.03 | 0.97 | 0.65 | 96 | 1006.7 |
| 20260506133048 | 43 | 98 | 3.0 | 9.0 | 0.03 | 0.97 | 0.65 | 95 | 1006.7 |
| 20260506131542 | 43 | 109 | 4.0 | 9.0 | 0.03 | 0.96 | 0.64 | 96 | 1006.5 |
| 20260506130040 | 43 | 102 | 3.0 | 9.0 | 0.03 | 0.95 | 0.63 | 95 | 1006.5 |
| 20260506124537 | 43 | 101 | 5.0 | 10.0 | 0.04 | 0.94 | 0.62 | 96 | 1006.3 |
| 20260506123036 | 43 | 97 | 3.0 | 10.0 | 0.05 | 0.94 | 0.62 | 95 | 1006.3 |
| 20260506121530 | 43 | 96 | 4.0 | 12.0 | 0.05 | 0.93 | 0.61 | 95 | 1006.2 |
| 20260506120031 | 43 | 90 | 4.0 | 9.0 | 0.05 | 0.92 | 0.60 | 95 | 1006.4 |
| 20260506114538 | 43 | 95 | 5.0 | 10.0 | 0.04 | 0.90 | 0.57 | 96 | 1006.2 |
| 20260506113026 | 43 | 111 | 3.0 | 9.0 | 0.04 | 0.89 | 0.56 | 96 | 1006.5 |
| 20260506111521 | 43 | 90 | 6.0 | 10.0 | 0.04 | 0.88 | 0.56 | 96 | 1006.1 |
| 20260506110021 | 43 | 98 | 6.0 | 10.0 | 0.05 | 0.87 | 0.55 | 96 | 1006.0 |
| 20260506104516 | 43 | 110 | 4.0 | 8.0 | 0.06 | 0.86 | 0.54 | 96 | 1005.8 |
| 20260506103017 | 43 | 114 | 4.0 | 7.0 | 0.07 | 0.85 | 0.53 | 96 | 1006.1 |
| 20260506101522 | 43 | 104 | 4.0 | 9.0 | 0.09 | 0.84 | 0.52 | 95 | 1006.3 |
| 20260506100010 | 44 | 111 | 3.0 | 8.0 | 0.07 | 0.82 | 0.50 | 96 | 1006.6 |
| 20260506094515 | 44 | 101 | 1.0 | 7.0 | 0.05 | 0.79 | 0.47 | 96 | 1006.4 |
| 20260506093008 | 44 | 325 | 1.0 | 8.0 | 0.05 | 0.77 | 0.45 | 96 | 1006.6 |
| 20260506091505 | 44 | 98 | 4.0 | 8.0 | 0.04 | 0.75 | 0.43 | 96 | 1006.1 |
| 20260506090007 | 44 | 72 | 2.0 | 9.0 | 0.05 | 0.75 | 0.43 | 95 | 1006.2 |
| 20260506084512 | 44 | 99 | 3.0 | 9.0 | 0.06 | 0.74 | 0.42 | 95 | 1006.2 |
| 20260506083002 | 44 | 71 | 4.0 | 9.0 | 0.06 | 0.72 | 0.40 | 95 | 1006.2 |